Home   Weather   Dryden   Past weeks

Flag for Canada Past Weather in Dryden, Ontario, Canada — Yesterday and Last 2 Weeks

Now
21 °F

Overcast.


Feels Like: 4 °F
Forecast: 19 / 25 °F
Wind: 24 mph from Northeast

Location: Dryden Airport

Current Time: Apr 26, 2017 at 5:31:35 am

Latest Report: Apr 26, 2017 at 5:00 am


Visibility: 9 mi

Pressure: 29.99 "Hg

Humidity: 86%

Dew Point: 18 °F

Location of DrydenLocation

Past Weather in Dryden — Graph

°F

Dryden Temperature Yesterday

Maximum temperature yesterday: 28 °F (at 12:00 am)
Minimum temperature yesterday: 25 °F (at 7:07 am)
Average temperature yesterday: 27 °F

High & Low Weather Summary for the Past Weeks

 TemperatureHumidityPressure
High61 °F (Apr 13, 3:00 pm)100% (Apr 15, 4:36 am)30.40 "Hg (Apr 15, 4:36 am)
Low19 °F (Apr 23, 6:00 am)16% (Apr 11, 6:00 pm)29.69 "Hg (Apr 15, 6:02 am)
Average38 °F68%30.08 "Hg
* Reported Apr 11 4:00 am — Apr 26 4:00 am, Dryden, Weather by CustomWeather, © 2017

Note: Actual official high and low records may vary slightly from our data, if they occured in-between our weather recording intervals... More about our weather records

Advertising

Dryden Weather History for the Previous 24 Hours

Scroll right to see more
 ConditionsComfort  
Time TempWeatherWind HumidityBarometerVisibility
4:00 am
Wed, Apr 26
21 °FOvercast.24 mph86%30.00 "Hg9 mi
3:00 am21 °FOvercast.25 mph86%30.02 "Hg9 mi
2:00 am21 °FOvercast.24 mph86%30.03 "Hg9 mi
1:00 am23 °FOvercast.21 mph86%30.05 "Hg9 mi
12:00 am23 °FOvercast.17 mph86%30.06 "Hg9 mi
11:00 pm
Tue, Apr 25
25 °FOvercast.21 mph80%30.06 "Hg9 mi
10:00 pm25 °FOvercast.17 mph86%30.06 "Hg9 mi
9:00 pm25 °FOvercast.22 mph86%30.04 "Hg9 mi
8:00 pm25 °FOvercast.21 mph86%30.03 "Hg9 mi
7:00 pm27 °FOvercast.20 mph80%30.03 "Hg9 mi
6:00 pm27 °FOvercast.21 mph80%30.01 "Hg9 mi
5:00 pm27 °FOvercast.18 mph80%29.98 "Hg9 mi
4:00 pm27 °FOvercast.18 mph86%29.98 "Hg9 mi
3:00 pm27 °FOvercast.20 mph80%29.96 "Hg9 mi
2:00 pm27 °FOvercast.16 mph80%29.95 "Hg9 mi
1:00 pm27 °FOvercast.14 mph80%29.95 "Hg9 mi
12:00 pm25 °FOvercast.15 mph86%29.93 "Hg9 mi
11:00 am25 °FOvercast.12 mph86%29.91 "Hg9 mi
10:00 am25 °FOvercast.21 mph86%29.87 "Hg9 mi
9:00 am25 °FOvercast.22 mph86%29.85 "Hg9 mi
8:42 am25 °FLight snow. Overcast.14 mph86%29.85 "Hg9 mi
8:00 am25 °FLight snow. Mostly cloudy.18 mph86%29.85 "Hg9 mi
7:07 am25 °FLight snow. Mostly cloudy.15 mph93%29.84 "Hg6 mi
6:25 am27 °FLight snow. Mostly cloudy.17 mph93%29.80 "Hg3 mi
6:00 am27 °FLight snow. Mostly cloudy.15 mph93%29.80 "Hg2 mi
5:43 am27 °FLight snow. Mostly cloudy.14 mph93%29.79 "Hg2 mi
5:38 am27 °FLight snow. Cloudy.13 mph93%29.80 "Hg2 mi
5:00 am27 °FLight snow. Mostly cloudy.17 mph100%29.78 "Hg2 mi
Weather by CustomWeather, © 2017

See weather overviewHow to use our weather pages